Mojave, CA

2:03 PM PST on December 05, 2019 (GMT -0800)
Mojave

Weather History for KMHV - October, 2019

Change the Weather History Date:

Saturday, October 26, 2019

  Actual Average Record
Temperature  
Mean Temperature 66 °F -  
Max Temperature 84 °F 75 °F 88 °F (1965)
Min Temperature 48 °F 46 °F 37 °F (1989)
Cooling Degree Days 1    
Growing Degree Days 16 (Base 50)    
Moisture  
Dew Point 23 °F    
Average Humidity 20    
Maximum Humidity 32    
Minimum Humidity 12    
Precipitation  
Precipitation 0.00 in - - ()
Sea Level Pressure  
Sea Level Pressure 29.89 in    
Wind  
Wind Speed 8 mph ()    
Max Wind Speed 26 mph    
Max Gust Speed 36 mph    
Visibility 9.9 miles    
Events      
Averages and records for this station are not official NWS values.
T = Trace of Precipitation, MM = Missing Value Source: Averaged Metar Reports

Daily Weather History Graph

Daily Weather History Graph

Search for Another Location

Airport or City:

Astronomy

Oct. 26, 2019 Rise Set
Actual Time 7:08 AM PDT 6:04 PM PDT
Civil Twilight 6:42 AM PDT 6:30 PM PDT
Nautical Twilight 6:12 AM PDT 7:00 PM PDT
Astronomical Twilight 5:42 AM PDT 7:29 PM PDT
Moon 5:16 AM PDT (10/26) 5:37 PM PDT (10/26)
Length of Visible Light 11h 48m
Length of Day
10h 56m
Waning Crescent, 3% of the Moon is Illuminated
Oct 26
Waning Crescent
Oct 27
New
Nov 4
First Quarter
Nov 12
Full
Nov 19
Last Quarter

Hourly Weather History & Observations

Time (PDT) Temp. Dew Point Humidity Pressure Visibility Wind Dir Wind Speed Gust Speed Precip Events Conditions
12:00 AM 57.2 °F 21.2 °F 25% 30.07 in 10.0 mi NW 5.8 mph - N/A   Clear
12:20 AM 55.4 °F 19.4 °F 25% 30.06 in 10.0 mi WNW 5.8 mph - N/A   Clear
12:40 AM 55.4 °F 21.2 °F 26% 30.06 in 10.0 mi NNW 4.6 mph - N/A   Clear
1:00 AM 51.8 °F 17.6 °F 26% 30.05 in 10.0 mi Calm Calm - N/A   Clear
1:20 AM 51.8 °F 17.6 °F 26% 30.04 in 10.0 mi Calm Calm - N/A   Clear
1:40 AM 51.8 °F 17.6 °F 26% 30.04 in 10.0 mi NNW 4.6 mph - N/A   Clear
2:00 AM 53.6 °F 17.6 °F 24% 30.03 in 10.0 mi NNW 5.8 mph - N/A   Clear
2:20 AM 51.8 °F 17.6 °F 26% 30.02 in 10.0 mi NW 5.8 mph - N/A   Clear
2:40 AM 51.8 °F 19.4 °F 28% 30.02 in 10.0 mi WNW 4.6 mph - N/A   Clear
3:00 AM 51.8 °F 19.4 °F 28% 30.01 in 10.0 mi NNW 8.1 mph - N/A   Clear
3:20 AM 51.8 °F 19.4 °F 28% 30.00 in 10.0 mi NNW 5.8 mph - N/A   Clear
3:40 AM 50.0 °F 21.2 °F 32% 29.99 in 10.0 mi North 4.6 mph - N/A   Clear
4:00 AM 51.8 °F 21.2 °F 30% 29.98 in 10.0 mi NNE 3.5 mph - N/A   Clear
4:20 AM 53.6 °F 23.0 °F 30% 29.98 in 10.0 mi Calm Calm - N/A   Clear
4:40 AM 51.8 °F 21.2 °F 30% 29.98 in 10.0 mi North 5.8 mph - N/A   Clear
5:00 AM 50.0 °F 19.4 °F 30% 29.98 in 10.0 mi Calm Calm - N/A   Clear
5:20 AM 51.8 °F 19.4 °F 28% 29.97 in 10.0 mi Calm Calm - N/A   Clear
5:40 AM 50.0 °F 19.4 °F 30% 29.97 in 10.0 mi Calm Calm - N/A   Clear
6:00 AM 48.2 °F 19.4 °F 32% 29.97 in 10.0 mi North 3.5 mph - N/A   Clear
6:20 AM 48.2 °F 19.4 °F 32% 29.97 in 10.0 mi Calm Calm - N/A   Clear
6:40 AM 50.0 °F 21.2 °F 32% 29.97 in 10.0 mi North 10.4 mph - N/A   Clear
7:00 AM 51.8 °F 21.2 °F 30% 29.97 in 8.0 mi North 9.2 mph - N/A   Clear
7:40 AM 51.8 °F 21.2 °F 30% 29.96 in 9.0 mi North 6.9 mph - N/A   Clear
8:00 AM 57.2 °F 21.2 °F 25% 29.97 in 9.0 mi North 5.8 mph - N/A   Clear
8:20 AM 60.8 °F 21.2 °F 22% 29.97 in 9.0 mi North 4.6 mph - N/A   Clear
8:40 AM 64.4 °F 21.2 °F 19% 29.97 in 10.0 mi NE 4.6 mph - N/A   Clear
9:00 AM 64.4 °F 21.2 °F 19% 29.97 in 10.0 mi East 3.5 mph - N/A   Clear
9:20 AM 64.4 °F 21.2 °F 19% 29.97 in 10.0 mi Calm Calm - N/A   Clear
9:40 AM 66.2 °F 23.0 °F 19% 29.97 in 10.0 mi ESE 4.6 mph - N/A   Clear
10:00 AM 66.2 °F 23.0 °F 19% 29.96 in 10.0 mi SE 4.6 mph - N/A   Clear
10:20 AM 68.0 °F 23.0 °F 18% 29.96 in 10.0 mi Calm Calm - N/A   Clear
10:40 AM 68.0 °F 23.0 °F 18% 29.95 in 10.0 mi Calm Calm - N/A   Clear
11:00 AM 69.8 °F 23.0 °F 17% 29.94 in 10.0 mi Calm Calm - N/A   Clear
11:20 AM 71.6 °F 24.8 °F 17% 29.93 in 10.0 mi Variable 4.6 mph - N/A   Clear
11:40 AM 73.4 °F 24.8 °F 16% 29.92 in 10.0 mi Calm Calm - N/A   Clear
12:00 PM 75.2 °F 23.0 °F 14% 29.91 in 10.0 mi Calm Calm - N/A   Clear
12:20 PM 77.0 °F 23.0 °F 13% 29.90 in 10.0 mi South 4.6 mph - N/A   Clear
12:40 PM 78.8 °F 24.8 °F 14% 29.88 in 10.0 mi South 6.9 mph - N/A   Clear
1:20 PM 84.2 °F 28.4 °F 13% 29.85 in 10.0 mi West 21.9 mph - N/A   Clear
1:40 PM 84.2 °F 28.4 °F 13% 29.84 in 10.0 mi West 26.5 mph 34.5 mph N/A   Clear
2:00 PM 84.2 °F 26.6 °F 12% 29.84 in 10.0 mi West 17.3 mph - N/A   Clear
2:20 PM 84.2 °F 26.6 °F 12% 29.83 in 10.0 mi West 21.9 mph - N/A   Clear
2:40 PM 84.2 °F 28.4 °F 13% 29.82 in 10.0 mi West 19.6 mph 26.5 mph N/A   Clear
3:00 PM 84.2 °F 26.6 °F 12% 29.81 in 10.0 mi West 20.7 mph 28.8 mph N/A   Clear
3:20 PM 82.4 °F 26.6 °F 13% 29.80 in 10.0 mi WNW 25.3 mph 31.1 mph N/A   Clear
3:40 PM 82.4 °F 26.6 °F 13% 29.79 in 10.0 mi WNW 21.9 mph 31.1 mph N/A   Clear
4:00 PM 82.4 °F 26.6 °F 13% 29.79 in 10.0 mi West 24.2 mph 32.2 mph N/A   Clear
4:20 PM 80.6 °F 26.6 °F 14% 29.78 in 10.0 mi West 25.3 mph 31.1 mph N/A   Clear
4:40 PM 80.6 °F 26.6 °F 14% 29.78 in 10.0 mi West 26.5 mph 35.7 mph N/A   Clear
5:00 PM 78.8 °F 26.6 °F 15% 29.77 in 10.0 mi West 24.2 mph 32.2 mph N/A   Clear
5:20 PM 77.0 °F 28.4 °F 17% 29.78 in 10.0 mi West 23.0 mph - N/A   Clear
5:40 PM 75.2 °F 26.6 °F 17% 29.78 in 10.0 mi WSW 18.4 mph 25.3 mph N/A   Clear
6:00 PM 73.4 °F 26.6 °F 18% 29.78 in 10.0 mi WSW 16.1 mph 23.0 mph N/A   Clear
6:20 PM 73.4 °F 24.8 °F 16% 29.78 in 10.0 mi WSW 19.6 mph - N/A   Clear
6:40 PM 71.6 °F 24.8 °F 17% 29.78 in 10.0 mi West 18.4 mph 28.8 mph N/A   Clear
7:00 PM 71.6 °F 24.8 °F 17% 29.78 in 10.0 mi WSW 21.9 mph 29.9 mph N/A   Clear
7:20 PM 71.6 °F 26.6 °F 19% 29.78 in 10.0 mi WSW 21.9 mph 28.8 mph N/A   Clear
7:40 PM 71.6 °F 24.8 °F 17% 29.78 in 10.0 mi WSW 21.9 mph 32.2 mph N/A   Clear
8:00 PM 71.6 °F 23.0 °F 16% 29.78 in 10.0 mi West 26.5 mph 34.5 mph N/A   Clear
8:20 PM 71.6 °F 23.0 °F 16% 29.78 in 10.0 mi West 17.3 mph 34.5 mph N/A   Clear
8:40 PM 69.8 °F 21.2 °F 16% 29.78 in 10.0 mi WSW 13.8 mph 21.9 mph N/A   Clear
9:00 PM 69.8 °F 21.2 °F 16% 29.78 in 10.0 mi West 17.3 mph - N/A   Clear
9:20 PM 69.8 °F 21.2 °F 16% 29.78 in 10.0 mi WSW 15.0 mph 21.9 mph N/A   Clear
9:40 PM 68.0 °F 21.2 °F 17% 29.79 in 10.0 mi WSW 12.7 mph - N/A   Scattered Clouds
10:00 PM 69.8 °F 23.0 °F 17% 29.79 in 10.0 mi West 17.3 mph 23.0 mph N/A   Mostly Cloudy
10:20 PM 68.0 °F 23.0 °F 18% 29.78 in 10.0 mi West 12.7 mph - N/A   Overcast
10:40 PM 68.0 °F 23.0 °F 18% 29.79 in 10.0 mi WSW 12.7 mph - N/A   Overcast
11:00 PM 66.2 °F 23.0 °F 19% 29.79 in 10.0 mi West 10.4 mph 17.3 mph N/A   Overcast
11:20 PM 66.2 °F 23.0 °F 19% 29.79 in 10.0 mi West 13.8 mph - N/A   Overcast
11:40 PM 66.2 °F 24.8 °F 21% 29.78 in 10.0 mi WSW 12.7 mph - N/A   Overcast